テンペル-スイフト-リニア彗星

11P/Tempel-Swift-LINEAR (2001)

English version
Home page
Updated on July 21, 2013

---------------------------------------------------------------------

・ プロフィール

符号 11P/2001 X3
再発見日 2001年12月7日
再発見光度 19.9等
再発見者 Lincoln Laboratory Near-Earth Asteroid Research project

・ 写真集

・ 軌道要素

Epoch 2002 Jan. 6.0 TT = JDT 2452280.5
T 2001 Dec. 30.75551 TT                                 MPC
q   1.5840558            (2000.0)            P               Q
n   0.15466172     Peri.  163.63430     +0.70839272     -0.67599018
a   3.4372740      Node   240.71075     +0.61868388     +0.73314296
e   0.5391535      Incl.   13.46067     +0.33972049     +0.07442234
P   6.37
>From 25 observations 2001 Sept. 10-Dec. 19, mean residual 0".71.

・ 星図

・ 光度変化

        m1 = 15.0 + 5 logΔ + 10.0 log r

---------------------------------------------------------------------

軌道要素は Dr. Brian G. Marsden の計算によるもので、 M.P.E.C. 2001-Y15 に掲載されたものです。
星図は StellaNavigator Ver.2.0 for Windows (アストロアーツ 編著 / アスキー出版局刊) で作成したものです。
光度グラフはComet for Windowsで作成したものです。

---------------------------------------------------------------------

Copyright(C) Seiichi Yoshida (comet@aerith.net). All rights reserved.